Showing default

USA 486, 62757

Orbit data source: Space-Track

USA 486, 62757 is a payload satellite owned by NRO (US) in LEO that was launched on Tue, 21 Jan 2025 UTC via an FALCON 9 launch vehicle from the Air Force Eastern Test Range (AFETR). Payload-class satellites include a variety of spacecraft equipped with specific instruments for various scientific and technological missions. These include communications satellites like Starlink; space stations such as the ISS; scientific satellites like the Hubble; Earth observation satellites from companies like Planet Labs, Umbra, and HawkEye 360; GPS; miniature CubeSats for education and research; and military/defense satellites.

Loading next visibility...
Identifier
62757, 2025-014Y
Orbit
LEO
Country
Flag of USUS
Related business
Manufacturer
SpaceX/Seattle
Mission
Operational Defense Imaging
Bus & Motor
STARSHIELD, Unknown motor
Mass
800 kg wet, ~750 kg dry
Launch date (UTC)
2025-01-21 (11 months ago)
Launch vehicle
FALCON 9
Launch site
Air Force Eastern Test Range (AFETR)
Object type
Payload
Rocket body
Debris
Shape & HBR
Box + 1 Pan, 2.0 m
Radar Cross Section
41.120 m², Large (>1 m²)

Expand to show TLE details & history
Last TLE update: 18 hours ago

TLE from 18 hours ago
0 USA 486
1 62757U 25014Y   25348.93221392  .00210399  00000-0  13356-2 0  9996
2 62757  42.9987 150.0546 0001834 287.3678  72.6990 15.75094886 51693
Epoch: 2025-12-14T22:22Z
TLE epoch observation values (Epoch: 2025-12-14T22:22:23.282Z)
Latitude
-0.00006°
Longitude
90.61948°
Altitude
343.765 km
Speed
7.705 km/s
True Right ascension
10h 00m 13s
True Declination
0° 00' 00"
Sunlit
Object was in full shadow at epoch
Visualization orbit readout
Latitude
Unknown
Longitude
Unknown
Altitude
Unknown
Speed
Unknown
Apparent Right ascension
Unknown
Apparent Declination
Unknown
Sunlit
N/A
Visualization observer readout
Local Sidereal Time
15:08:15
Azimuth
Unknown
Elevation
Unknown
Doppler factor
Unknown
Orbital elements
Apogee altitude
347.58 km
Perigee altitude
345.113 km
Semi-major axis
6,724.484 km
Eccentricity
0.00018
Inclination
42.9987°
RAAN
150.0546°
Arg. of periapsis
287.3678°
True anomaly
72.71907°
Mean anomaly
72.699°
Eccentric anomaly
72.70903°
Mean motion
3.936 °/min
Orbital period
91.46 mins
BSTAR
0.0013356
Loading maneuver chart data...
Computing Atmospheric mass density...
Loading historical data...
Loading historical data...
Loading historical data...
Loading historical data...
Loading historical data...
Loading historical data...
Loading historical data...

Documentation

Showing up to 5 results
|